User: anonymous   Login
Location: Abraham Lincoln Continuation High School
(33.9711°N, 117.3662°W)
Time: 14:25:27
(UTC+00:00)
Language:

COSMO-SKYMED 1 - Orbit

View from above orbital plane
View from above orbital plane
View from above satellite
View from above satellite

Ground track
Ground track

The orbit data is extracted from the following two-line orbital elements,

1 31598U 07023A   20334.20351098  .00000065  00000-0  14749-4 0  9998
2 31598  97.8829 154.9794 0001446  91.8138 268.3232 14.82153939729239
Epoch (UTC): 29 November 2020 04:53:03
Eccentricity: 0.0001446
inclination: 97.8829°
perigee height: 621 km
apogee height: 623 km
right ascension of ascending node: 154.9794°
argument of perigee: 91.8138°
revolutions per day: 14.82153939
mean anomaly at epoch: 268.3232°
orbit number at epoch: 72923

The dashed part of the orbit path shows where the satellite is in the earth's shadow,  

DLR